This demonstration page uses our WeatherBlox Daily Observations layout. Learn more.

Left ArrowRight Arrow

39.92423, -83.80882

Hourly Observations for November 30, 2021

Temp ( °F °C ) Dew Point ( °F °C ) Humidity (%) Winds ( mph kmh ) Pressure ( in mb ) Visibility ( mi km ) Precip ( " mm )
12:56 am 00:56 Cloudy 38 3.3 20 -6.7 48 48 SSW 8 13 29.94 1014 10 16 N/A
1:56 am 01:56 Cloudy 40 4.4 20 -6.7 45 45 SW 16 26 29.91 1013 10 16 N/A
2:56 am 02:56 Cloudy 38 3.3 20 -6.7 48 48 SW 13 20 29.90 1013 10 16 N/A
3:56 am 03:56 Cloudy 37 2.8 21 -6.1 52 52 SW 12 19 29.89 1012 10 16 N/A
4:56 am 04:56 Clear 35 1.7 22 -5.6 59 59 SW 12 19 29.89 1012 10 16 N/A
5:56 am 05:56 Clear 35 1.7 24 -4.4 64 64 SW 12 19 29.89 1012 10 16 N/A
6:56 am 06:56 Clear 35 1.7 26 -3.3 70 70 WSW 13 20 29.92 1013 10 16 N/A
7:56 am 07:56 Sunny 36 2.2 28 -2.2 73 73 WSW 14 22 29.94 1014 10 16 N/A
8:56 am 08:56 Sunny 39 3.9 30 -1.1 70 70 W 15 24 29.97 1015 10 16 N/A
9:56 am 09:56 Sunny 41 5 33 0.6 73 73 W 14 22 30.00 1016 10 16 N/A
10:56 am 10:56 Sunny 44 6.7 35 1.7 71 71 W 13 20 30.03 1017 10 16 N/A
11:56 am 11:56 Sunny 46 7.8 35 1.7 66 66 WNW 14 22 30.02 1017 10 16 N/A
12:56 pm 12:56 Sunny 48 8.9 35 1.7 61 61 W 13 20 30.02 1017 10 16 N/A
1:56 pm 13:56 Sunny 50 10 35 1.7 57 57 W 16 26 30.01 1016 10 16 N/A
2:56 pm 14:56 Sunny 52 11.1 36 2.2 55 55 W 15 24 30.01 1016 10 16 N/A
3:56 pm 15:56 Sunny 51 10.6 36 2.2 56 56 W 13 20 30.04 1017 10 16 N/A
4:56 pm 16:56 Sunny 47 8.3 35 1.7 63 63 WSW 10 17 30.06 1018 10 16 N/A
5:56 pm 17:56 Clear 42 5.6 34 1.1 73 73 WSW 9 15 30.07 1018 10 16 N/A
6:56 pm 18:56 Clear 40 4.4 33 0.6 77 77 WSW 9 15 30.08 1019 10 16 N/A
7:56 pm 19:56 Clear 40 4.4 34 1.1 79 79 W 9 15 30.11 1020 10 16 N/A
8:56 pm 20:56 Clear 37 2.8 33 0.6 86 86 W 8 13 30.13 1020 10 16 N/A
9:56 pm 21:56 Clear 37 2.8 32 undefined 82 82 WNW 6 9 30.13 1020 10 16 N/A
10:56 pm 22:56 Clear 36 2.2 32 undefined 86 86 SW 5 7 30.14 1021 10 16 N/A
11:56 pm 23:56 Clear 34 1.1 33 0.6 97 97 WSW 6 9 30.14 1021 10 16 N/A

Powered by AerisWeather